KB6LA Weather Reports


time (UTC)temp
C
wind
direction
speed
KPH
gust
KPH
rain 1hr
cm
rain 24hr
cm
rain mn
cm
humidity
%
barometer
mb
20260903044340 21 0 3.2 4.8 0.00 0.00 0.00 68 1013.4
20260903043833 21 3 1.6 6.4 0.00 0.00 0.00 68 1013.4
20260903043327 21 23 1.6 9.7 0.00 0.00 0.00 68 1013.1
20260903042821 21 43 6.4 9.7 0.00 0.00 0.00 68 1013.1
20260903042314 21 39 4.8 9.7 0.00 0.00 0.00 68 1013.1
20260903041301 21 27 6.4 6.4 0.00 0.00 0.00 67 1013.1
20260903040755 21 48 6.4 6.4 0.00 0.00 0.00 67 1013.1
20260903035235 21 19 3.2 9.7 0.00 0.00 0.00 66 1013.1
20260903034223 21 41 4.8 6.4 0.00 0.00 0.00 66 1012.8
20260903033716 21 340 1.6 9.7 0.00 0.00 0.00 66 1012.8
20260903033209 21 43 4.8 11.3 0.00 0.00 0.00 66 1012.8
20260903032702 21 44 6.4 11.3 0.00 0.00 0.00 66 1012.8
20260903031649 21 19 4.8 9.7 0.00 0.00 0.00 65 1012.4
20260903031143 21 19 4.8 9.7 0.00 0.00 0.00 67 1012.4
20260903030637 21 18 1.6 9.7 0.00 0.00 0.00 66 1012.4
20260903030130 22 11 3.2 9.7 0.00 0.00 0.00 66 1012.4
20260903025117 21 59 3.2 6.4 0.00 0.00 0.00 65 1012.8
20260903024611 21 35 3.2 6.4 0.00 0.00 0.00 64 1012.4
20260903024104 21 71 4.8 6.4 0.00 0.00 0.00 63 1012.4
20260903023557 21 51 3.2 4.8 0.00 0.00 0.00 63 1012.4
20260903020519 22 321 0.0 3.2 0.00 0.00 0.00 62 1012.4
20260903020012 22 276 0.0 4.8 0.00 0.00 0.00 62 1012.4
20260903014958 22 237 3.2 6.4 0.00 0.00 0.00 62 1012.4
20260903014452 22 260 3.2 12.9 0.00 0.00 0.00 62 1012.8
20260903013946 22 246 4.8 12.9 0.00 0.00 0.00 63 1012.8
20260903013439 22 212 9.7 12.9 0.00 0.00 0.00 63 1012.8
20260903011919 22 225 9.7 17.7 0.00 0.00 0.00 67 1012.8
20260903011413 22 219 12.9 17.7 0.00 0.00 0.00 68 1012.8
20260903010907 22 262 9.7 17.7 0.00 0.00 0.00 67 1012.8
20260903010400 22 236 8.0 17.7 0.00 0.00 0.00 67 1012.8
20260903004841 22 244 8.0 17.7 0.00 0.00 0.00 66 1012.8
20260903004335 22 223 6.4 22.5 0.00 0.00 0.00 67 1012.8
20260903003828 22 215 9.7 20.9 0.00 0.00 0.00 67 1012.8
20260903003321 22 253 12.9 20.9 0.00 0.00 0.00 67 1012.8
20260903002815 22 232 12.9 22.5 0.00 0.00 0.00 67 1012.8
20260903002308 22 268 17.7 22.5 0.00 0.00 0.00 67 1012.8
20260903001802 22 219 6.4 22.5 0.00 0.00 0.00 67 1012.8
20260903001255 22 191 16.1 22.5 0.00 0.00 0.00 65 1012.8
20260903000749 23 248 4.8 20.9 0.00 0.00 0.00 64 1013.1
20260903000241 23 257 16.1 22.5 0.00 0.00 0.00 63 1012.8
20260902235735 23 202 14.5 22.5 0.00 0.00 0.00 61 1013.1
20260902234216 23 252 11.3 16.1 0.00 0.00 0.00 61 1013.1
20260902233709 23 269 8.0 16.1 0.00 0.00 0.00 61 1013.1
20260902233203 23 257 8.0 22.5 0.00 0.00 0.00 62 1013.1
20260902232150 23 285 16.1 24.1 0.00 0.00 0.00 64 1013.1
20260902231136 23 221 17.7 20.9 0.00 0.00 0.00 64 1013.4
20260902230630 23 210 12.9 22.5 0.00 0.00 0.00 66 1013.4
20260902230124 23 220 17.7 20.9 0.00 0.00 0.00 65 1013.4
20260902225617 23 249 9.7 20.9 0.00 0.00 0.00 65 1013.4
20260902225110 23 220 9.7 20.9 0.00 0.00 0.00 63 1013.4
20260902224604 23 230 9.7 17.7 0.00 0.00 0.00 64 1013.4
20260902224058 23 252 6.4 22.5 0.00 0.00 0.00 65 1013.4
20260902223551 23 232 12.9 22.5 0.00 0.00 0.00 66 1013.4
20260902223044 23 273 11.3 22.5 0.00 0.00 0.00 66 1013.4
20260902222538 23 235 14.5 22.5 0.00 0.00 0.00 65 1013.8
20260902222031 23 233 11.3 20.9 0.00 0.00 0.00 67 1013.4
20260902221524 23 240 9.7 22.5 0.00 0.00 0.00 67 1013.8
20260902221018 23 265 9.7 22.5 0.00 0.00 0.00 65 1013.8
20260902220512 23 202 11.3 24.1 0.00 0.00 0.00 64 1013.8
20260902220006 23 246 11.3 24.1 0.00 0.00 0.00 64 1013.8
20260902214952 24 239 19.3 22.5 0.00 0.00 0.00 61 1014.1
20260902213940 24 234 17.7 24.1 0.00 0.00 0.00 61 1014.1
20260902213433 23 292 8.0 24.1 0.00 0.00 0.00 61 1014.1
20260902212926 24 176 9.7 22.5 0.00 0.00 0.00 61 1014.1
20260902211913 23 228 12.9 24.1 0.00 0.00 0.00 60 1014.1
20260902211407 24 195 14.5 22.5 0.00 0.00 0.00 59 1014.1
20260902205848 25 232 11.3 17.7 0.00 0.00 0.00 57 1014.5
20260902205340 24 256 9.7 17.7 0.00 0.00 0.00 57 1014.5
20260902203821 23 231 8.0 22.5 0.00 0.00 0.00 59 1014.5
20260902203315 24 227 11.3 17.7 0.00 0.00 0.00 56 1014.5
20260902202301 23 263 12.9 20.9 0.00 0.00 0.00 59 1014.5
20260902201250 23 196 9.7 22.5 0.00 0.00 0.00 61 1014.8
20260902200235 23 228 11.3 17.7 0.00 0.00 0.00 61 1014.8
20260902195729 23 249 11.3 17.7 0.00 0.00 0.00 61 1014.8
20260902195225 23 236 12.9 17.7 0.00 0.00 0.00 61 1014.8
20260902194715 23 250 11.3 17.7 0.00 0.00 0.00 61 1015.1
20260902194209 23 222 14.5 17.7 0.00 0.00 0.00 60 1015.1
20260902193703 23 222 11.3 16.1 0.00 0.00 0.00 61 1015.1
20260902193156 23 290 6.4 17.7 0.00 0.00 0.00 63 1015.1
20260902192650 23 250 12.9 17.7 0.00 0.00 0.00 64 1015.1
20260902192143 22 221 9.7 17.7 0.00 0.00 0.00 65 1015.1
20260902191636 23 230 17.7 17.7 0.00 0.00 0.00 65 1015.1
20260902191130 23 262 12.9 14.5 0.00 0.00 0.00 64 1015.1
20260902190624 22 230 4.8 16.1 0.00 0.00 0.00 66 1015.1
20260902190118 23 239 14.5 16.1 0.00 0.00 0.00 65 1015.1
20260902185610 23 265 6.4 16.1 0.00 0.00 0.00 64 1015.1
20260902185104 23 232 4.8 16.1 0.00 0.00 0.00 65 1015.1
20260902184558 23 185 9.7 16.1 0.00 0.00 0.00 66 1015.5
20260902184051 23 188 12.9 16.1 0.00 0.00 0.00 67 1015.5
20260902183544 23 282 8.0 16.1 0.00 0.00 0.00 67 1015.5
20260902183040 22 235 11.3 16.1 0.00 0.00 0.00 67 1015.5
20260902182531 22 262 4.8 16.1 0.00 0.00 0.00 67 1015.5
20260902182024 23 245 9.7 14.5 0.00 0.00 0.00 67 1015.5
20260902181518 22 206 6.4 12.9 0.00 0.00 0.00 67 1015.5
20260902180504 22 220 8.0 14.5 0.00 0.00 0.00 66 1015.5
20260902175958 22 271 4.8 11.3 0.00 0.00 0.00 67 1015.1
20260902175452 22 229 6.4 12.9 0.00 0.00 0.00 68 1015.1
20260902174946 22 242 8.0 12.9 0.00 0.00 0.00 67 1015.1
20260902174439 22 195 8.0 12.9 0.00 0.00 0.00 68 1015.1
20260902173932 22 203 3.2 11.3 0.00 0.00 0.00 68 1015.5
20260902173426 22 235 4.8 11.3 0.00 0.00 0.00 68 1015.1
20260902172919 23 211 9.7 11.3 0.00 0.00 0.00 67 1015.5
20260902171907 23 20 1.6 6.4 0.00 0.00 0.00 63 1015.5
20260902171400 23 245 1.6 9.7 0.00 0.00 0.00 62 1015.1
20260902170853 23 43 1.6 9.7 0.00 0.00 0.00 64 1015.1
20260902165841 22 173 0.0 11.3 0.00 0.00 0.00 68 1015.1
20260902164827 22 256 3.2 12.9 0.00 0.00 0.00 68 1015.1
20260902163814 22 169 4.8 11.3 0.00 0.00 0.00 68 1014.8
20260902163308 22 257 1.6 11.3 0.00 0.00 0.00 68 1015.1
20260902162801 22 182 6.4 9.7 0.00 0.00 0.00 68 1015.1
20260902162254 22 236 3.2 6.4 0.00 0.00 0.00 67 1015.1
20260902161748 22 291 0.0 4.8 0.00 0.00 0.00 69 1015.1
20260902161242 21 226 3.2 9.7 0.00 0.00 0.00 71 1015.1
20260902160735 21 156 3.2 9.7 0.00 0.00 0.00 72 1015.1
20260902160229 21 197 6.4 9.7 0.00 0.00 0.00 72 1015.1
20260902155722 21 154 1.6 6.4 0.00 0.00 0.00 71 1015.1
20260902155216 21 173 3.2 4.8 0.00 0.00 0.00 71 1015.1
20260902154709 21 231 3.2 9.7 0.00 0.00 0.00 72 1015.1
20260902154203 21 187 3.2 9.7 0.00 0.00 0.00 73 1015.1
20260902153657 21 291 0.0 4.8 0.00 0.00 0.00 74 1014.8
20260902153151 21 266 1.6 4.8 0.00 0.00 0.00 74 1014.8
20260902152643 21 234 1.6 4.8 0.00 0.00 0.00 75 1015.1
20260902152139 20 302 1.6 3.2 0.00 0.00 0.00 76 1014.8
20260902151630 20 273 0.0 3.2 0.00 0.00 0.00 77 1014.8
20260902150617 20 276 1.6 1.6 0.00 0.00 0.00 78 1015.1
20260902150111 20 341 0.0 1.6 0.00 0.00 0.00 79 1014.8
20260902145604 18 340 0.0 1.6 0.00 0.00 0.00 81 1014.8
20260902145059 18 348 1.6 3.2 0.00 0.00 0.00 83 1015.1
20260902144045 17 334 1.6 3.2 0.00 0.00 0.00 85 1014.8
20260902143539 17 328 0.0 3.2 0.00 0.00 0.00 86 1014.8
20260902143031 17 342 1.6 4.8 0.00 0.00 0.00 86 1014.8
20260902142525 17 337 1.6 4.8 0.00 0.00 0.00 87 1014.8
20260902142019 17 327 3.2 4.8 0.00 0.00 0.00 87 1014.8
20260902141513 16 321 1.6 4.8 0.00 0.00 0.00 88 1014.8
20260902141005 16 306 1.6 4.8 0.00 0.00 0.00 88 1014.8
20260902135953 16 335 1.6 3.2 0.00 0.00 0.00 88 1014.5
20260902135446 16 323 3.2 3.2 0.00 0.00 0.00 89 1014.5
20260902134940 16 323 1.6 3.2 0.00 0.00 0.00 88 1014.5
20260902134434 16 318 0.0 3.2 0.00 0.00 0.00 88 1014.5
20260902133926 16 329 3.2 3.2 0.00 0.00 0.00 88 1014.5
20260902133420 16 319 1.6 4.8 0.00 0.00 0.00 88 1014.5
20260902132914 16 324 1.6 4.8 0.00 0.00 0.00 88 1014.5
20260902132407 16 333 1.6 3.2 0.00 0.00 0.00 88 1014.5
20260902131901 16 333 1.6 3.2 0.00 0.00 0.00 87 1014.1
20260902131354 16 332 1.6 3.2 0.00 0.00 0.00 88 1014.1
20260902130847 16 325 1.6 3.2 0.00 0.00 0.00 87 1014.1
20260902130340 16 338 3.2 3.2 0.00 0.00 0.00 87 1014.5
20260902125834 16 327 1.6 3.2 0.00 0.00 0.00 87 1014.5
20260902125328 16 322 1.6 3.2 0.00 0.00 0.00 87 1014.1
20260902124822 16 323 1.6 3.2 0.00 0.00 0.00 87 1014.5
20260902124315 16 328 1.6 4.8 0.00 0.00 0.00 87 1014.1
20260902123808 16 338 3.2 3.2 0.00 0.00 0.00 87 1014.5
20260902123302 16 325 0.0 3.2 0.00 0.00 0.00 87 1014.1
20260902122756 16 328 0.0 3.2 0.00 0.00 0.00 87 1014.5
20260902121236 16 328 1.6 3.2 0.00 0.00 0.00 87 1014.5
20260902120730 16 324 3.2 3.2 0.00 0.00 0.00 87 1014.5
20260902120224 16 326 1.6 3.2 0.00 0.00 0.00 87 1014.5
20260902115717 16 316 0.0 3.2 0.00 0.00 0.00 86 1014.5
20260902115210 16 318 0.0 3.2 0.00 0.00 0.00 87 1014.5
20260902114703 16 325 1.6 3.2 0.00 0.00 0.00 87 1014.5
20260902114157 16 327 0.0 3.2 0.00 0.00 0.00 86 1014.5
20260902113145 16 321 0.0 3.2 0.00 0.00 0.00 86 1014.5
20260902112132 16 337 0.0 3.2 0.00 0.00 0.00 86 1014.5
20260902111624 17 335 1.6 3.2 0.00 0.00 0.00 86 1014.5
20260902111118 16 342 1.6 3.2 0.00 0.00 0.00 86 1014.5
20260902110612 17 0 1.6 3.2 0.00 0.00 0.00 85 1014.5
20260902110106 17 328 0.0 3.2 0.00 0.00 0.00 85 1014.5
20260902105559 17 340 1.6 3.2 0.00 0.00 0.00 85 1014.5
20260902105053 17 332 0.0 3.2 0.00 0.00 0.00 85 1014.5
20260902104546 17 341 1.6 3.2 0.00 0.00 0.00 85 1014.5
20260902104039 17 330 0.0 4.8 0.00 0.00 0.00 84 1014.5
20260902103532 17 340 3.2 4.8 0.00 0.00 0.00 84 1014.5
20260902103026 17 343 3.2 4.8 0.00 0.00 0.00 84 1014.5
20260902102520 17 1 1.6 4.8 0.00 0.00 0.00 84 1014.5
20260902102013 17 343 3.2 4.8 0.00 0.00 0.00 84 1014.5
20260902101507 17 25 3.2 4.8 0.00 0.00 0.00 84 1014.5
20260902094935 17 349 3.2 3.2 0.00 0.00 0.00 83 1014.5
20260902094428 17 12 3.2 4.8 0.00 0.00 0.00 83 1014.5
20260902093921 17 26 3.2 6.4 0.00 0.00 0.00 83 1014.5
20260902093415 17 19 3.2 6.4 0.00 0.00 0.00 83 1014.5
20260902092908 17 27 3.2 6.4 0.00 0.00 0.00 83 1014.5
20260902092402 17 9 4.8 6.4 0.00 0.00 0.00 83 1014.5
20260902091856 17 16 3.2 4.8 0.00 0.00 0.00 83 1014.5
20260902091349 17 8 3.2 4.8 0.00 0.00 0.00 82 1014.5
20260902090843 17 4 3.2 6.4 0.00 0.00 0.00 82 1014.5
20260902090337 17 1 4.8 6.4 0.00 0.00 0.00 82 1014.5
20260902085830 17 5 3.2 4.8 0.00 0.00 0.00 82 1014.5
20260902085324 17 25 3.2 6.4 0.00 0.00 0.00 82 1014.5
20260902084817 17 8 3.2 6.4 0.00 0.00 0.00 82 1014.1
20260902084310 17 347 4.8 4.8 0.00 0.00 0.00 81 1014.5
20260902083804 17 36 1.6 6.4 0.00 0.00 0.00 81 1014.5
20260902083300 17 15 3.2 6.4 0.00 0.00 0.00 81 1014.5
20260902081738 17 3 3.2 6.4 0.00 0.00 0.00 80 1014.5
20260902081231 17 11 4.8 9.7 0.00 0.00 0.00 80 1014.5
20260902080725 17 18 6.4 9.7 0.00 0.00 0.00 80 1014.5
20260902075712 17 9 6.4 9.7 0.00 0.00 0.00 79 1014.5
20260902075206 17 18 6.4 9.7 0.00 0.00 0.00 79 1014.5
20260902074659 17 9 6.4 6.4 0.00 0.00 0.00 78 1014.5
20260902074153 17 5 3.2 6.4 0.00 0.00 0.00 77 1014.5
20260902073646 17 7 4.8 6.4 0.00 0.00 0.00 77 1014.5
20260902073140 17 11 3.2 6.4 0.00 0.00 0.00 77 1014.5
20260902072634 17 9 4.8 6.4 0.00 0.00 0.00 77 1014.5
20260902072127 17 22 3.2 6.4 0.00 0.00 0.00 77 1014.1
20260902071621 18 17 6.4 6.4 0.00 0.00 0.00 77 1014.1
20260902071113 18 12 4.8 6.4 0.00 0.00 0.00 77 1014.1
20260902070607 18 0 3.2 6.4 0.00 0.00 0.00 76 1014.1
20260902065555 18 14 4.8 9.7 0.00 0.00 0.00 76 1014.1
20260902064542 18 10 4.8 6.4 0.00 0.00 0.00 74 1013.8
20260902064035 18 355 3.2 4.8 0.00 0.00 0.00 74 1013.8
20260902063528 18 28 3.2 6.4 0.00 0.00 0.00 74 1014.1
20260902063022 18 14 3.2 6.4 0.00 0.00 0.00 73 1014.1
20260902062516 18 19 4.8 6.4 0.00 0.00 0.00 73 1014.1
20260902062009 18 19 4.8 4.8 0.00 0.00 0.00 73 1014.1
20260902061503 18 352 1.6 6.4 0.00 0.00 0.00 73 1014.1
20260902060450 17 0 1.6 4.8 0.00 0.00 0.00 73 1014.1
20260902055437 17 342 1.6 3.2 0.00 0.00 0.00 73 1013.8
20260902054930 18 337 1.6 3.2 0.00 0.00 0.00 74 1013.8
20260902054424 18 327 1.6 3.2 0.00 0.00 0.00 74 1013.8
20260902053917 18 334 1.6 3.2 0.00 0.00 0.00 74 1013.8
20260902053411 18 344 1.6 3.2 0.00 0.00 0.00 74 1013.8
20260902052359 18 333 1.6 4.8 0.00 0.00 0.00 74 1013.8
20260902051851 18 330 1.6 6.4 0.00 0.00 0.00 74 1013.8
20260902051345 18 16 4.8 6.4 0.00 0.00 0.00 74 1013.8
20260902050333 18 357 1.6 4.8 0.00 0.00 0.00 77 1013.8